W9EWA Weather Reports


time (UTC)temp
F
wind
direction
speed
knots
gust
knots
rain 1hr
in
rain 24hr
in
rain mn
in
humidity
%
barometer
mb
20260906095932 69 63 0.9 2.6 0.00 0.00 0.00 92 1016.8
20260906095252 69 69 1.7 2.6 0.00 0.00 0.00 92 1016.8
20260906094612 69 61 1.7 3.5 0.00 0.00 0.00 93 1016.8
20260906093932 69 57 1.7 0.9 0.00 0.00 0.00 93 1016.8
20260906092828 68 54 1.7 2.6 0.00 0.00 0.00 94 1016.8
20260906092148 68 57 0.9 1.7 0.00 0.00 0.00 94 1016.8
20260906091508 68 52 0.9 1.7 0.00 0.00 0.00 94 1016.4
20260906090828 68 34 0.9 1.7 0.00 0.00 0.00 94 1016.4
20260906090148 68 56 0.9 1.7 0.00 0.00 0.00 94 1016.4
20260906085508 68 359 0.9 0.0 0.00 0.00 0.00 94 1016.4
20260906084545 68 359 0.9 1.7 0.00 0.00 0.00 94 1016.8
20260906083905 68 354 0.9 1.7 0.00 0.00 0.00 94 1016.8
20260906083225 68 326 0.9 1.7 0.00 0.00 0.00 94 1016.8
20260906082545 68 344 0.9 1.7 0.00 0.00 0.00 94 1016.8
20260906081905 68 358 0.9 1.7 0.00 0.00 0.00 94 1016.4
20260906081225 68 4 0.9 1.7 0.00 0.00 0.00 93 1016.4
20260906080545 68 2 1.7 2.6 0.00 0.00 0.00 93 1016.4
20260906075906 68 5 0.9 2.6 0.00 0.00 0.00 92 1016.8
20260906075225 68 18 1.7 1.7 0.00 0.00 0.00 92 1016.4
20260906074333 69 54 0.9 2.6 0.00 0.00 0.00 91 1016.4
20260906073653 69 8 1.7 2.6 0.00 0.00 0.00 91 1016.4
20260906073013 69 2 0.9 1.7 0.00 0.00 0.00 90 1016.4
20260906072333 69 8 0.9 1.7 0.00 0.00 0.00 90 1016.4
20260906071653 70 7 0.9 0.0 0.00 0.00 0.00 89 1016.4
20260906070802 70 358 0.9 2.6 0.00 0.00 0.00 88 1016.4
20260906070122 70 32 1.7 2.6 0.00 0.00 0.00 90 1016.4
20260906065442 70 16 0.9 2.6 0.00 0.00 0.00 89 1016.4
20260906064802 70 30 0.9 2.6 0.00 0.00 0.00 89 1016.4
20260906064122 70 48 0.9 2.6 0.00 0.00 0.00 89 1016.4
20260906063442 70 47 1.7 3.5 0.00 0.00 0.00 89 1016.4
20260906062802 70 54 0.9 2.6 0.00 0.00 0.00 89 1016.4
20260906062122 70 52 1.7 2.6 0.00 0.00 0.00 89 1016.4
20260906061442 70 45 0.9 3.5 0.00 0.00 0.00 89 1016.4
20260906060802 70 47 1.7 0.9 0.00 0.00 0.00 88 1016.4
20260906055659 70 53 2.6 4.3 0.00 0.00 0.00 88 1016.4
20260906055019 70 62 1.7 3.5 0.00 0.00 0.00 88 1016.1
20260906054339 71 55 2.6 5.2 0.00 0.00 0.00 88 1016.1
20260906053659 71 54 2.6 5.2 0.00 0.00 0.00 87 1016.1
20260906053019 71 56 3.5 5.2 0.00 0.00 0.00 87 1016.1
20260906052339 71 62 1.7 5.2 0.00 0.00 0.00 86 1016.1
20260906051659 72 56 2.6 5.2 0.00 0.00 0.00 86 1016.1
20260906051019 72 55 2.6 6.1 0.00 0.00 0.00 86 1016.1
20260906050339 72 63 2.6 5.2 0.00 0.00 0.00 85 1015.7
20260906045659 72 56 2.6 5.2 0.00 0.00 0.00 85 1016.1
20260906045019 72 49 2.6 5.2 0.00 0.00 0.00 85 1016.1
20260906044339 72 33 2.6 5.2 0.00 0.00 0.00 86 1015.7
20260906043659 72 55 2.6 3.5 0.00 0.00 0.00 85 1015.7
20260906042807 73 60 2.6 6.1 0.00 0.00 0.00 84 1015.7
20260906042127 73 63 2.6 4.3 0.00 0.00 0.00 84 1015.7
20260906041235 73 58 2.6 1.7 0.00 0.00 0.00 84 1015.7
20260906040344 73 56 3.5 6.1 0.00 0.00 0.00 84 1015.4
20260906035704 74 68 3.5 3.5 0.00 0.00 0.00 83 1015.4
20260906034601 74 53 2.6 7.0 0.00 0.00 0.00 84 1015.4
20260906033920 74 62 3.5 3.5 0.00 0.00 0.00 84 1015.4
20260906032958 74 55 4.3 3.5 0.00 0.00 0.00 84 1015.4
20260906032102 73 66 2.6 5.2 0.00 0.00 0.00 85 1015.4
20260906031422 73 60 1.7 5.2 0.00 0.00 0.00 87 1015.4
20260906030742 73 56 2.6 4.3 0.00 0.00 0.00 89 1015.4
20260906025422 73 45 1.7 3.5 0.00 0.00 0.00 90 1015.4
20260906024742 73 55 1.7 6.1 0.00 0.00 0.00 90 1015.4
20260906024102 73 37 2.6 4.3 0.00 0.00 0.00 90 1015.4
20260906023207 73 45 1.7 6.1 0.00 0.00 0.00 90 1015.4
20260906022527 72 28 2.6 6.1 0.00 0.00 0.00 90 1015.4
20260906021847 72 354 4.3 6.1 0.00 0.00 0.00 90 1015.4
20260906021207 72 2 3.5 6.1 0.00 0.00 0.00 90 1015.4
20260906020527 72 356 3.5 5.2 0.00 0.00 0.00 90 1015.4
20260906015847 72 354 4.3 7.8 0.00 0.00 0.00 89 1015.4
20260906015207 72 5 2.6 5.2 0.00 0.00 0.00 89 1015.1
20260906014527 72 355 2.6 1.7 0.00 0.00 0.00 89 1015.1
20260906013606 72 10 3.5 9.6 0.00 0.00 0.00 89 1015.1
20260906012926 72 6 4.3 8.7 0.00 0.00 0.00 89 1014.7
20260906012246 72 355 5.2 3.5 0.00 0.00 0.00 88 1014.7
20260906011354 72 358 5.2 11.3 0.00 0.00 0.00 88 1014.7
20260906010714 72 16 2.6 9.6 0.00 0.00 0.00 87 1014.7
20260906010034 72 9 4.3 8.7 0.00 0.00 0.00 87 1014.7
20260906005354 72 28 3.5 9.6 0.00 0.00 0.00 87 1014.7
20260906004714 72 10 4.3 9.6 0.00 0.00 0.00 86 1014.4
20260906004034 72 6 3.5 9.6 0.00 0.00 0.00 86 1014.7
20260906003354 72 26 4.3 10.4 0.00 0.00 0.00 86 1014.7
20260906002714 73 44 3.5 7.0 0.00 0.00 0.00 85 1014.4
20260906002034 73 23 3.5 6.1 0.00 0.00 0.00 86 1014.4
20260906001354 73 17 5.2 1.7 0.00 0.00 0.00 86 1014.4
20260906000502 73 20 3.5 8.7 0.00 0.00 0.00 86 1014.4
20260905235822 73 8 5.2 10.4 0.00 0.00 0.00 86 1014.4
20260905235142 73 24 5.2 10.4 0.00 0.00 0.00 85 1014.4
20260905234502 73 13 4.3 5.2 0.00 0.00 0.00 84 1014.4
20260905233537 74 7 3.5 10.4 0.00 0.00 0.00 85 1014.4
20260905232857 74 4 4.3 11.3 0.00 0.00 0.00 85 1014.4
20260905232217 74 19 6.1 11.3 0.00 0.00 0.00 84 1014.4
20260905231537 74 15 4.3 11.3 0.00 0.00 0.00 84 1014.4
20260905230857 74 2 5.2 9.6 0.00 0.00 0.00 84 1014.4
20260905230217 74 27 3.5 10.4 0.00 0.00 0.00 84 1014.4
20260905225537 74 24 3.5 9.6 0.00 0.00 0.00 83 1014.4
20260905224857 75 36 3.5 9.6 0.00 0.00 0.00 83 1014.0
20260905224217 75 359 6.1 10.4 0.00 0.00 0.00 82 1014.0
20260905223537 74 5 4.3 11.3 0.00 0.00 0.00 82 1014.0
20260905222857 74 13 5.2 13.0 0.00 0.00 0.00 82 1014.0
20260905222218 75 15 5.2 11.3 0.00 0.00 0.00 81 1014.0
20260905221537 75 3 5.2 12.2 0.00 0.00 0.00 81 1014.0
20260905220857 75 353 8.7 6.1 0.00 0.00 0.00 81 1014.0
20260905220006 76 6 5.2 11.3 0.00 0.00 0.00 79 1014.0
20260905215326 77 2 6.1 8.7 0.00 0.00 0.00 78 1014.0
20260905214433 77 8 6.1 12.2 0.00 0.00 0.00 78 1014.0
20260905213753 77 9 7.8 13.0 0.00 0.00 0.00 78 1013.7
20260905213114 77 355 6.1 14.8 0.00 0.00 0.00 77 1013.7
20260905212433 77 357 8.7 14.8 0.00 0.00 0.00 77 1013.7
20260905211753 77 355 7.8 13.9 0.00 0.00 0.00 78 1013.7
20260905211113 76 356 7.8 13.9 0.00 0.00 0.00 79 1013.7
20260905210433 77 360 7.8 12.2 0.00 0.00 0.00 78 1013.7
20260905205753 77 355 8.7 12.2 0.00 0.00 0.00 77 1013.7
20260905205113 78 14 6.1 11.3 0.00 0.00 0.00 76 1013.7
20260905204433 78 331 6.1 8.7 0.00 0.00 0.00 77 1013.7
20260905203508 77 356 7.0 13.9 0.00 0.00 0.00 78 1013.7
20260905202828 77 350 8.7 13.9 0.00 0.00 0.00 77 1013.7
20260905202148 79 356 5.2 12.2 0.00 0.00 0.00 76 1013.7
20260905201508 78 353 4.3 12.2 0.00 0.00 0.00 78 1013.7
20260905200828 78 12 5.2 10.4 0.00 0.00 0.00 77 1013.7
20260905200148 79 5 5.2 10.4 0.00 0.00 0.00 77 1013.7
20260905195508 79 0 7.8 7.0 0.00 0.00 0.00 77 1013.7
20260905194300 81 3 7.0 11.3 0.00 0.00 0.00 72 1013.7
20260905193620 81 10 6.1 11.3 0.00 0.00 0.00 73 1013.7
20260905192940 81 355 6.1 11.3 0.00 0.00 0.00 73 1013.7
20260905192300 82 325 4.3 11.3 0.00 0.00 0.00 71 1014.0
20260905191620 81 357 7.8 11.3 0.00 0.00 0.00 71 1013.7
20260905190940 82 4 4.3 11.3 0.00 0.00 0.00 71 1013.7
20260905190300 82 356 4.3 11.3 0.00 0.00 0.00 70 1013.7
20260905185620 82 12 4.3 7.0 0.00 0.00 0.00 69 1013.7
20260905184726 82 32 5.2 10.4 0.00 0.00 0.00 67 1013.7
20260905184046 82 354 7.0 10.4 0.00 0.00 0.00 68 1014.0
20260905183406 82 21 5.2 10.4 0.00 0.00 0.00 67 1013.7
20260905182726 83 358 5.2 10.4 0.00 0.00 0.00 69 1013.7
20260905182046 84 15 3.5 10.4 0.00 0.00 0.00 67 1013.7
20260905181406 83 20 4.3 13.0 0.00 0.00 0.00 67 1013.7
20260905180726 83 351 5.2 12.2 0.00 0.00 0.00 66 1013.7
20260905180046 83 5 6.1 5.2 0.00 0.00 0.00 67 1013.7
20260905175152 83 35 3.5 12.2 0.00 0.00 0.00 67 1013.7
20260905174512 83 348 6.1 9.6 0.00 0.00 0.00 68 1013.7
20260905173832 84 349 5.2 9.6 0.00 0.00 0.00 68 1013.7
20260905173152 83 1 4.3 8.7 0.00 0.00 0.00 68 1013.7
20260905172512 84 359 4.3 3.5 0.00 0.00 0.00 68 1013.7
20260905171620 83 356 4.3 8.7 0.00 0.00 0.00 73 1013.7
20260905170940 83 35 2.6 9.6 0.00 0.00 0.00 72 1014.0
20260905170300 83 13 4.3 8.7 0.00 0.00 0.00 71 1014.0
20260905165620 84 309 3.5 8.7 0.00 0.00 0.00 73 1014.0
20260905164940 83 3 4.3 8.7 0.00 0.00 0.00 72 1014.0
20260905164300 83 24 4.3 7.0 0.00 0.00 0.00 74 1014.0
20260905163620 82 23 2.6 7.8 0.00 0.00 0.00 76 1014.0
20260905162940 82 3 5.2 8.7 0.00 0.00 0.00 76 1014.0
20260905162300 82 360 3.5 8.7 0.00 0.00 0.00 78 1014.0
20260905161620 82 350 3.5 7.0 0.00 0.00 0.00 77 1014.0
20260905160940 82 347 3.5 7.8 0.00 0.00 0.00 78 1014.0
20260905160300 82 24 1.7 4.3 0.00 0.00 0.00 80 1014.0
20260905155620 81 356 2.6 5.2 0.00 0.00 0.00 81 1014.0
20260905154940 80 62 1.7 6.1 0.00 0.00 0.00 84 1014.0
20260905154300 80 347 4.3 7.0 0.00 0.00 0.00 85 1014.0
20260905153620 79 358 4.3 7.8 0.00 0.00 0.00 85 1014.0
20260905152940 79 353 4.3 7.8 0.00 0.00 0.00 85 1014.0
20260905152300 80 4 4.3 8.7 0.00 0.00 0.00 85 1014.0
20260905151621 80 355 4.3 8.7 0.00 0.00 0.00 85 1014.0
20260905150940 80 29 1.7 8.7 0.00 0.00 0.00 86 1013.7
20260905150300 79 346 4.3 9.6 0.00 0.00 0.00 87 1013.7
20260905145620 79 349 5.2 8.7 0.00 0.00 0.00 87 1013.7
20260905144940 79 0 5.2 8.7 0.00 0.00 0.00 86 1013.7
20260905144301 81 35 2.6 6.1 0.00 0.00 0.00 83 1013.3
20260905143620 81 25 2.6 7.0 0.00 0.00 0.00 83 1013.3
20260905142940 81 2 3.5 7.0 0.00 0.00 0.00 85 1013.3
20260905142300 80 29 2.6 5.2 0.00 0.00 0.00 83 1013.3
20260905141620 80 355 1.7 6.1 0.00 0.00 0.00 86 1013.3
20260905140940 80 345 2.6 5.2 0.00 0.00 0.00 88 1013.7
20260905140300 80 340 2.6 5.2 0.00 0.00 0.00 88 1013.7
20260905135620 80 345 2.6 3.5 0.00 0.00 0.00 90 1013.7
20260905134940 80 61 1.7 3.5 0.00 0.00 0.00 90 1013.3
20260905134300 80 78 1.7 3.5 0.00 0.00 0.00 90 1013.3
20260905133620 79 337 0.9 2.6 0.00 0.00 0.00 91 1013.3
20260905132940 79 57 0.9 1.7 0.00 0.00 0.00 90 1013.3
20260905132047 79 67 0.9 2.6 0.00 0.00 0.00 91 1013.3
20260905131407 78 72 0.9 1.7 0.00 0.00 0.00 92 1013.3
20260905130727 78 112 0.9 1.7 0.00 0.00 0.00 93 1013.0
20260905130047 78 79 0.9 2.6 0.00 0.00 0.00 93 1013.0
20260905125407 78 59 0.9 2.6 0.00 0.00 0.00 92 1013.0
20260905124727 78 84 1.7 2.6 0.00 0.00 0.00 93 1013.0
20260905124047 77 74 1.7 2.6 0.00 0.00 0.00 94 1013.0
20260905123407 77 90 0.9 0.9 0.00 0.00 0.00 94 1013.0
20260905122727 76 263 0.0 0.9 0.00 0.00 0.00 95 1013.0
20260905122047 76 186 0.9 0.9 0.00 0.00 0.00 95 1012.6
20260905121407 76 209 0.0 1.7 0.00 0.00 0.00 95 1012.6
20260905120727 76 69 0.9 2.6 0.00 0.00 0.00 95 1012.6
20260905120048 76 52 1.7 2.6 0.00 0.00 0.00 95 1012.6
20260905115407 76 48 1.7 2.6 0.00 0.00 0.00 94 1012.6
20260905114727 75 102 0.9 1.7 0.00 0.00 0.00 96 1012.3
20260905114047 75 58 1.7 1.7 0.00 0.00 0.00 96 1012.3
20260905113407 74 132 0.9 0.9 0.00 0.00 0.00 96 1012.3
20260905112727 74 205 0.9 0.9 0.00 0.00 0.00 96 1012.3
20260905112047 74 218 0.9 0.9 0.00 0.00 0.00 96 1012.3
20260905111407 74 206 0.0 1.7 0.00 0.00 0.00 96 1011.9
20260905110727 74 333 0.9 1.7 0.00 0.00 0.00 96 1011.9
20260905110047 74 145 0.0 0.9 0.00 0.00 0.00 95 1011.9
20260905105154 74 336 0.0 1.7 0.00 0.00 0.00 95 1011.9
20260905104514 74 218 0.9 1.7 0.00 0.00 0.00 94 1011.9
20260905103834 75 231 0.0 1.7 0.00 0.00 0.00 94 1012.3
20260905103155 75 57 0.0 0.0 0.00 0.00 0.00 94 1012.3
20260905102301 75 179 0.9 1.7 0.00 0.00 0.00 95 1012.3
20260905101621 75 308 0.9 1.7 0.00 0.00 0.00 95 1012.3
20260905100941 75 351 1.7 1.7 0.00 0.00 0.00 95 1012.3